{"data":{"norad_id":69306,"intl_designator":"2026-119L","name":"STARLINK-37701","alt_names":[],"object_type":"PAYLOAD","status":"ACTIVE","operator":null,"country":"US","launch_date":"2026-05-30","launch_site_code":"AFWTR","launch_vehicle":null,"mission":null,"orbit_class":"UNKNOWN","rcs_meters":null,"size_class":null,"mass_kg":null,"dimensions":null,"purposes":["comms"],"wikipedia_slug":null,"has_3d_model":false,"image_url":null,"decayed_at":null,"tle_current":{"epoch":"2026-09-20T01:07:03.967680Z","epoch_age_seconds":68189,"freshness":"FRESH","line1":"1 69306U 26119L   26263.04657370  .00011786  00000+0  36665-3 0  9995","line2":"2 69306  97.2860 287.7847 0001846 111.5947 248.5493 15.33460632 18599","mean_motion":15.33460632,"eccentricity":0.0001846,"inclination_deg":97.286,"raan_deg":287.7847,"arg_perigee_deg":111.5947,"mean_anomaly_deg":248.5493,"bstar":0.00036665,"rev_number":1859,"period_min":93.905247382966,"perigee_km":464.23333026471,"apogee_km":466.75999981384,"semimajor_km":6843.6336650393,"source":"CELESTRAK","updated_at":"2026-09-20T09:00:44.155926Z"}}}